Year,Month,Day,Hour,Minute,Value (Times are PST for windspeed in km/hr)
2017,05,24,00,00,5.90
2017,05,24,00,01,5.20
2017,05,24,00,02,7.30
2017,05,24,00,03,8.00
2017,05,24,00,04,5.20
2017,05,24,00,05,5.70
2017,05,24,00,06,5.30
2017,05,24,00,07,2.90
2017,05,24,00,08,4.40
2017,05,24,00,09,3.60
2017,05,24,00,10,4.20
2017,05,24,00,11,2.70
2017,05,24,00,12,3.80
2017,05,24,00,13,6.80
2017,05,24,00,14,4.80
2017,05,24,00,15,3.70
2017,05,24,00,16,1.00
2017,05,24,00,17,0.00
2017,05,24,00,18,3.20
2017,05,24,00,19,3.30
2017,05,24,00,20,5.40
2017,05,24,00,21,4.40
2017,05,24,00,22,1.50
2017,05,24,00,23,2.90
2017,05,24,00,24,3.20
2017,05,24,00,25,3.40
2017,05,24,00,26,2.30
2017,05,24,00,27,1.90
2017,05,24,00,28,4.30
2017,05,24,00,29,3.80
2017,05,24,00,30,4.50
2017,05,24,00,31,3.80
2017,05,24,00,32,0.90
2017,05,24,00,33,3.90
2017,05,24,00,34,7.40
2017,05,24,00,35,5.70
2017,05,24,00,36,4.50
2017,05,24,00,37,0.80
2017,05,24,00,38,0.00
2017,05,24,00,39,0.00
2017,05,24,00,40,0.00
2017,05,24,00,41,0.00
2017,05,24,00,42,0.00
2017,05,24,00,43,4.20
2017,05,24,00,44,4.20
2017,05,24,00,45,3.70
2017,05,24,00,46,4.90
2017,05,24,00,47,18.10
2017,05,24,00,48,15.70
2017,05,24,00,49,7.40
2017,05,24,00,50,3.80
2017,05,24,00,51,4.00
2017,05,24,00,52,4.40
2017,05,24,00,53,2.80
2017,05,24,00,54,2.60
2017,05,24,00,55,4.50
2017,05,24,00,56,3.30
2017,05,24,00,57,3.10
2017,05,24,00,58,5.40
2017,05,24,00,59,6.40
2017,05,24,01,00,3.50
2017,05,24,01,01,2.40
2017,05,24,01,02,1.80
2017,05,24,01,03,6.80
2017,05,24,01,04,5.90
2017,05,24,01,05,4.00
2017,05,24,01,06,5.40
2017,05,24,01,07,4.50
2017,05,24,01,08,6.40
2017,05,24,01,09,4.00
2017,05,24,01,10,0.00
2017,05,24,01,11,0.00
2017,05,24,01,12,0.00
2017,05,24,01,13,0.00
2017,05,24,01,14,0.00
2017,05,24,01,15,0.00
2017,05,24,01,16,0.00
2017,05,24,01,17,3.00
2017,05,24,01,18,3.80
2017,05,24,01,19,4.90
2017,05,24,01,20,5.70
2017,05,24,01,21,3.80
2017,05,24,01,22,1.70
2017,05,24,01,23,2.50
2017,05,24,01,24,2.30
2017,05,24,01,25,1.20
2017,05,24,01,26,3.20
2017,05,24,01,27,3.00
2017,05,24,01,28,3.50
2017,05,24,01,29,4.80
2017,05,24,01,30,12.00
2017,05,24,01,31,6.00
2017,05,24,01,32,5.70
2017,05,24,01,33,4.70
2017,05,24,01,34,4.40
2017,05,24,01,35,5.30
2017,05,24,01,36,3.80
2017,05,24,01,37,5.00
2017,05,24,01,38,6.20
2017,05,24,01,39,9.30
2017,05,24,01,40,5.10
2017,05,24,01,41,2.10
2017,05,24,01,42,5.60
2017,05,24,01,43,3.20
2017,05,24,01,44,3.50
2017,05,24,01,45,4.60
2017,05,24,01,46,3.20
2017,05,24,01,47,2.90
2017,05,24,01,48,3.30
2017,05,24,01,49,1.90
2017,05,24,01,50,0.60
2017,05,24,01,51,0.00
2017,05,24,01,52,1.10
2017,05,24,01,53,1.40
2017,05,24,01,54,1.40
2017,05,24,01,55,3.30
2017,05,24,01,56,4.00
2017,05,24,01,57,1.80
2017,05,24,01,58,3.20
2017,05,24,01,59,7.20
2017,05,24,02,00,3.10
2017,05,24,02,01,3.50
2017,05,24,02,02,4.40
2017,05,24,02,03,1.00
2017,05,24,02,04,2.40
2017,05,24,02,05,2.80
2017,05,24,02,06,4.40
2017,05,24,02,07,2.20
2017,05,24,02,08,4.40
2017,05,24,02,09,1.20
2017,05,24,02,10,0.50
2017,05,24,02,11,1.00
2017,05,24,02,12,1.10
2017,05,24,02,13,2.40
2017,05,24,02,14,3.70
2017,05,24,02,15,2.10
2017,05,24,02,16,0.90
2017,05,24,02,17,0.50
2017,05,24,02,18,4.10
2017,05,24,02,19,3.80
2017,05,24,02,20,4.80
2017,05,24,02,21,7.00
2017,05,24,02,22,5.70
2017,05,24,02,23,2.40
2017,05,24,02,24,1.60
2017,05,24,02,25,2.60
2017,05,24,02,26,4.50
2017,05,24,02,27,5.30
2017,05,24,02,28,5.40
2017,05,24,02,29,4.40
2017,05,24,02,30,5.70
2017,05,24,02,31,4.50
2017,05,24,02,32,6.10
2017,05,24,02,33,4.60
2017,05,24,02,34,4.20
2017,05,24,02,35,6.40
2017,05,24,02,36,12.80
2017,05,24,02,37,10.40
2017,05,24,02,38,7.80
2017,05,24,02,39,5.30
2017,05,24,02,40,3.60
2017,05,24,02,41,2.70
2017,05,24,02,42,3.80
2017,05,24,02,43,8.30
2017,05,24,02,44,3.30
2017,05,24,02,45,2.10
2017,05,24,02,46,2.10
2017,05,24,02,47,1.30
2017,05,24,02,48,1.90
2017,05,24,02,49,4.20
2017,05,24,02,50,2.10
2017,05,24,02,51,1.80
2017,05,24,02,52,2.10
2017,05,24,02,53,3.70
2017,05,24,02,54,1.10
2017,05,24,02,55,2.80
2017,05,24,02,56,2.40
2017,05,24,02,57,6.60
2017,05,24,02,58,17.70
2017,05,24,02,59,10.80
2017,05,24,03,00,4.60
2017,05,24,03,01,5.90
2017,05,24,03,02,5.70
2017,05,24,03,03,6.40
2017,05,24,03,04,3.00
2017,05,24,03,05,2.80
2017,05,24,03,06,3.60
2017,05,24,03,07,2.30
2017,05,24,03,08,2.10
2017,05,24,03,09,3.40
2017,05,24,03,10,3.00
2017,05,24,03,11,4.60
2017,05,24,03,12,3.30
2017,05,24,03,13,3.40
2017,05,24,03,14,2.10
2017,05,24,03,15,5.10
2017,05,24,03,16,5.40
2017,05,24,03,17,2.70
2017,05,24,03,18,1.40
2017,05,24,03,19,3.40
2017,05,24,03,20,2.10
2017,05,24,03,21,5.00
2017,05,24,03,22,4.60
2017,05,24,03,23,1.20
2017,05,24,03,24,2.40
2017,05,24,03,25,3.30
2017,05,24,03,26,2.60
2017,05,24,03,27,4.10
2017,05,24,03,28,3.20
2017,05,24,03,29,4.30
2017,05,24,03,30,4.40
2017,05,24,03,31,2.50
2017,05,24,03,32,1.50
2017,05,24,03,33,0.70
2017,05,24,03,34,0.00
2017,05,24,03,35,0.20
2017,05,24,03,36,4.80
2017,05,24,03,37,1.30
2017,05,24,03,38,2.30
2017,05,24,03,39,4.40
2017,05,24,03,40,2.10
2017,05,24,03,41,1.40
2017,05,24,03,42,0.80
2017,05,24,03,43,2.30
2017,05,24,03,44,2.60
2017,05,24,03,45,1.20
2017,05,24,03,46,0.30
2017,05,24,03,47,0.20
2017,05,24,03,48,0.90
2017,05,24,03,49,0.60
2017,05,24,03,50,0.10
2017,05,24,03,51,1.80
2017,05,24,03,52,3.10
2017,05,24,03,53,4.60
2017,05,24,03,54,3.10
2017,05,24,03,55,3.20
2017,05,24,03,56,3.70
2017,05,24,03,57,5.40
2017,05,24,03,58,2.40
2017,05,24,03,59,0.60
2017,05,24,04,00,0.00
2017,05,24,04,01,0.00
2017,05,24,04,02,0.00
2017,05,24,04,03,0.00
2017,05,24,04,04,0.00
2017,05,24,04,05,1.80
2017,05,24,04,06,3.00
2017,05,24,04,07,9.70
2017,05,24,04,08,7.70
2017,05,24,04,09,5.30
2017,05,24,04,10,5.80
2017,05,24,04,11,10.30
2017,05,24,04,12,2.90
2017,05,24,04,13,4.80
2017,05,24,04,14,4.10
2017,05,24,04,15,2.50
2017,05,24,04,16,4.20
2017,05,24,04,17,3.60
2017,05,24,04,18,9.20
2017,05,24,04,19,4.20
2017,05,24,04,20,6.20
2017,05,24,04,21,5.70
2017,05,24,04,22,6.80
2017,05,24,04,23,11.30
2017,05,24,04,24,15.30
2017,05,24,04,25,10.20
2017,05,24,04,26,16.60
2017,05,24,04,27,6.10
2017,05,24,04,28,15.30
2017,05,24,04,29,13.30
2017,05,24,04,30,7.50
2017,05,24,04,31,9.10
2017,05,24,04,32,10.60
2017,05,24,04,33,5.30
2017,05,24,04,34,27.50
2017,05,24,04,35,18.00
2017,05,24,04,36,11.30
2017,05,24,04,37,11.20
2017,05,24,04,38,23.00
2017,05,24,04,39,20.80
2017,05,24,04,40,17.80
2017,05,24,04,41,19.80
2017,05,24,04,42,7.70
2017,05,24,04,43,12.40
2017,05,24,04,44,14.00
2017,05,24,04,45,18.40
2017,05,24,04,46,9.50
2017,05,24,04,47,11.60
2017,05,24,04,48,12.10
2017,05,24,04,49,16.30
2017,05,24,04,50,14.40
2017,05,24,04,51,8.50
2017,05,24,04,52,14.40
2017,05,24,04,53,12.40
2017,05,24,04,54,19.10
2017,05,24,04,55,10.20
2017,05,24,04,56,4.90
2017,05,24,04,57,7.50
2017,05,24,04,58,6.60
2017,05,24,04,59,13.40
2017,05,24,05,00,22.00
2017,05,24,05,01,14.90
2017,05,24,05,02,13.10
2017,05,24,05,03,7.80
2017,05,24,05,04,13.10
2017,05,24,05,05,7.70
2017,05,24,05,06,2.60
2017,05,24,05,07,4.00
2017,05,24,05,08,6.20
2017,05,24,05,09,5.90
2017,05,24,05,10,2.40
2017,05,24,05,11,5.70
2017,05,24,05,12,9.20
2017,05,24,05,13,7.80
2017,05,24,05,14,5.30
2017,05,24,05,15,9.50
2017,05,24,05,16,11.50
2017,05,24,05,17,8.20
2017,05,24,05,18,5.90
2017,05,24,05,19,10.50
2017,05,24,05,20,4.10
2017,05,24,05,21,5.30
2017,05,24,05,22,8.50
2017,05,24,05,23,12.40
2017,05,24,05,24,9.00
2017,05,24,05,25,6.60
2017,05,24,05,26,11.00
2017,05,24,05,27,8.40
2017,05,24,05,28,9.70
2017,05,24,05,29,5.20
2017,05,24,05,30,7.60
2017,05,24,05,31,14.10
2017,05,24,05,32,12.00
2017,05,24,05,33,10.90
2017,05,24,05,34,9.10
2017,05,24,05,35,7.00
2017,05,24,05,36,6.10
2017,05,24,05,37,11.10
2017,05,24,05,38,11.30
2017,05,24,05,39,6.30
2017,05,24,05,40,16.70
2017,05,24,05,41,11.10
2017,05,24,05,42,9.20
2017,05,24,05,43,22.00
2017,05,24,05,44,7.90
2017,05,24,05,45,6.10
2017,05,24,05,46,11.70
2017,05,24,05,47,13.90
2017,05,24,05,48,17.50
2017,05,24,05,49,13.20
2017,05,24,05,50,9.10
2017,05,24,05,51,5.30
2017,05,24,05,52,3.80
2017,05,24,05,53,3.70
2017,05,24,05,54,2.30
2017,05,24,05,55,9.70
2017,05,24,05,56,9.00
2017,05,24,05,57,8.90
2017,05,24,05,58,7.80
2017,05,24,05,59,6.20
2017,05,24,06,00,6.80
2017,05,24,06,01,5.20
2017,05,24,06,02,4.70
2017,05,24,06,03,3.50
2017,05,24,06,04,14.30
2017,05,24,06,05,6.30
2017,05,24,06,06,5.50
2017,05,24,06,07,3.40
2017,05,24,06,08,7.80
2017,05,24,06,09,16.30
2017,05,24,06,10,7.40
2017,05,24,06,11,7.80
2017,05,24,06,12,9.70
2017,05,24,06,13,9.20
2017,05,24,06,14,10.80
2017,05,24,06,15,18.20
2017,05,24,06,16,10.40
2017,05,24,06,17,9.70
2017,05,24,06,18,9.30
2017,05,24,06,19,8.70
2017,05,24,06,20,10.80
2017,05,24,06,21,6.10
2017,05,24,06,22,8.10
2017,05,24,06,23,8.80
2017,05,24,06,24,6.00
2017,05,24,06,25,8.20
2017,05,24,06,26,15.50
2017,05,24,06,27,13.40
2017,05,24,06,28,6.60
2017,05,24,06,29,8.00
2017,05,24,06,30,5.90
2017,05,24,06,31,14.10
2017,05,24,06,32,7.70
2017,05,24,06,33,7.90
2017,05,24,06,34,10.70
2017,05,24,06,35,5.30
2017,05,24,06,36,9.60
2017,05,24,06,38,5.60
2017,05,24,06,39,14.20
2017,05,24,06,40,27.40
2017,05,24,06,41,13.80
2017,05,24,06,42,26.40
2017,05,24,06,43,25.80
2017,05,24,06,44,6.60
2017,05,24,06,45,16.70
2017,05,24,06,46,14.00
2017,05,24,06,47,9.90
2017,05,24,06,48,12.60
2017,05,24,06,49,14.30
2017,05,24,06,50,16.40
2017,05,24,06,51,21.10
2017,05,24,06,52,15.50
2017,05,24,06,53,10.30
2017,05,24,06,54,6.20
2017,05,24,06,55,13.70
2017,05,24,06,56,21.40
2017,05,24,06,57,11.80
2017,05,24,06,58,10.30
2017,05,24,06,59,7.50
2017,05,24,07,00,13.30
2017,05,24,07,01,4.90
2017,05,24,07,02,11.50
2017,05,24,07,03,8.40
2017,05,24,07,04,11.00
2017,05,24,07,05,13.60
2017,05,24,07,06,20.10
2017,05,24,07,07,14.70
2017,05,24,07,08,6.40
2017,05,24,07,09,13.30
2017,05,24,07,10,15.10
2017,05,24,07,11,18.60
2017,05,24,07,12,11.80
2017,05,24,07,13,10.20
2017,05,24,07,14,9.90
2017,05,24,07,15,12.50
2017,05,24,07,16,18.00
2017,05,24,07,17,18.30
2017,05,24,07,18,15.00
2017,05,24,07,19,19.40
2017,05,24,07,20,18.80
2017,05,24,07,21,24.60
2017,05,24,11,46,4.60
2017,05,24,11,47,8.20
2017,05,24,11,48,12.10
2017,05,24,11,49,12.30
2017,05,24,11,50,9.00
2017,05,24,11,51,8.90
2017,05,24,11,52,9.90
2017,05,24,11,53,9.00
2017,05,24,11,54,14.10
2017,05,24,11,55,14.00
2017,05,24,11,56,6.20
2017,05,24,11,57,20.10
2017,05,24,11,58,13.40
2017,05,24,11,59,14.40
2017,05,24,12,00,9.90
2017,05,24,12,01,12.30
2017,05,24,12,02,9.30
2017,05,24,12,03,4.80
2017,05,24,12,04,4.60
2017,05,24,12,05,5.00
2017,05,24,12,06,6.80
2017,05,24,12,07,14.00
2017,05,24,12,08,11.20
2017,05,24,12,09,10.00
2017,05,24,12,10,11.50
2017,05,24,12,11,12.10
2017,05,24,12,12,8.90
2017,05,24,12,13,5.70
2017,05,24,12,14,10.30
2017,05,24,12,15,2.80
2017,05,24,12,16,9.30
2017,05,24,12,17,9.30
2017,05,24,12,18,9.20
2017,05,24,12,19,5.10
2017,05,24,12,20,4.20
2017,05,24,12,21,5.40
2017,05,24,12,22,3.70
2017,05,24,12,23,4.90
2017,05,24,12,24,6.80
2017,05,24,12,25,9.70
2017,05,24,12,26,10.80
2017,05,24,12,27,7.60
2017,05,24,12,28,5.50
2017,05,24,12,29,4.80
2017,05,24,12,30,4.20
2017,05,24,12,31,3.30
2017,05,24,12,32,4.00
2017,05,24,12,33,3.30
2017,05,24,12,34,6.20
2017,05,24,12,35,6.80
2017,05,24,12,36,11.60
2017,05,24,12,37,4.80
2017,05,24,12,38,10.20
2017,05,24,12,39,9.20
2017,05,24,12,40,6.80
2017,05,24,12,41,6.30
2017,05,24,12,42,6.90
2017,05,24,12,43,10.30
2017,05,24,12,44,5.00
2017,05,24,12,45,6.10
2017,05,24,12,46,7.00
2017,05,24,12,47,7.20
2017,05,24,12,48,6.80
2017,05,24,12,49,6.00
2017,05,24,12,50,2.40
2017,05,24,12,51,10.20
2017,05,24,12,52,4.10
2017,05,24,12,53,4.90
2017,05,24,12,54,4.90
2017,05,24,12,55,6.90
2017,05,24,12,56,5.70
2017,05,24,12,57,3.30
2017,05,24,12,58,2.40
2017,05,24,12,59,6.70
2017,05,24,13,00,12.60
2017,05,24,13,01,6.40
2017,05,24,13,02,5.80
2017,05,24,13,03,8.20
2017,05,24,13,04,4.10
2017,05,24,13,05,6.80
2017,05,24,13,06,4.80
2017,05,24,13,07,8.30
2017,05,24,13,08,5.30
2017,05,24,13,09,4.20
2017,05,24,13,10,5.80
2017,05,24,13,11,4.50
2017,05,24,13,12,5.30
2017,05,24,13,13,7.50
2017,05,24,13,14,8.80
2017,05,24,13,15,4.20
2017,05,24,13,16,8.00
2017,05,24,13,17,11.30
2017,05,24,13,18,9.20
2017,05,24,13,19,4.20
2017,05,24,13,20,7.90
2017,05,24,13,21,8.80
2017,05,24,13,22,5.00
2017,05,24,13,23,4.30
2017,05,24,13,24,8.90
2017,05,24,13,25,10.80
2017,05,24,13,26,8.90
2017,05,24,13,27,4.60
2017,05,24,13,28,5.00
2017,05,24,13,29,5.60
2017,05,24,13,30,10.60
2017,05,24,13,31,5.70
2017,05,24,13,32,8.80
2017,05,24,13,33,4.20
2017,05,24,13,34,6.90
2017,05,24,13,35,5.70
2017,05,24,13,36,9.00
2017,05,24,13,37,9.00
2017,05,24,13,38,9.20
2017,05,24,13,39,3.00
2017,05,24,13,40,3.70
2017,05,24,13,41,7.30
2017,05,24,13,42,14.30
2017,05,24,13,43,11.60
2017,05,24,13,44,12.80
2017,05,24,13,45,16.20
2017,05,24,13,46,7.20
2017,05,24,13,47,14.50
2017,05,24,13,48,16.50
2017,05,24,13,49,12.70
2017,05,24,13,50,5.10
2017,05,24,13,51,6.10
2017,05,24,13,52,3.90
2017,05,24,13,53,10.80
2017,05,24,13,54,7.10
2017,05,24,13,55,8.10
2017,05,24,13,56,7.80
2017,05,24,13,57,6.70
2017,05,24,13,58,12.90
2017,05,24,13,59,8.80
2017,05,24,14,00,9.70
2017,05,24,14,01,6.10
2017,05,24,14,02,10.30
2017,05,24,14,03,9.50
2017,05,24,14,04,11.00
2017,05,24,14,05,5.50
2017,05,24,14,06,7.80
2017,05,24,14,07,11.60
2017,05,24,14,08,15.10
2017,05,24,14,09,8.40
2017,05,24,14,10,8.20
2017,05,24,14,11,6.10
2017,05,24,14,12,7.10
2017,05,24,14,13,6.80
2017,05,24,14,14,7.50
2017,05,24,14,15,4.60
2017,05,24,14,16,8.80
2017,05,24,14,17,4.70
2017,05,24,14,18,5.80
2017,05,24,14,19,3.70
2017,05,24,14,20,4.20
2017,05,24,14,21,5.40
2017,05,24,14,22,4.20
2017,05,24,14,23,4.80
2017,05,24,14,24,9.80
2017,05,24,14,25,3.50
2017,05,24,14,26,5.80
2017,05,24,14,27,9.80
2017,05,24,14,28,5.90
2017,05,24,14,29,7.90
2017,05,24,14,30,6.40
2017,05,24,14,31,11.40
2017,05,24,14,32,6.70
2017,05,24,14,33,4.30
2017,05,24,14,34,5.30
2017,05,24,14,35,6.20
2017,05,24,14,36,5.30
2017,05,24,14,37,9.70
2017,05,24,14,38,8.10
2017,05,24,14,39,8.50
2017,05,24,14,40,8.30
2017,05,24,14,41,8.80
2017,05,24,14,42,11.10
2017,05,24,14,43,8.60
2017,05,24,14,44,14.10
2017,05,24,14,45,10.50
2017,05,24,14,46,11.00
2017,05,24,14,47,11.70
2017,05,24,14,48,12.80
2017,05,24,14,49,5.30
2017,05,24,14,50,6.20
2017,05,24,14,51,6.70
2017,05,24,14,52,4.80
2017,05,24,14,53,4.20
2017,05,24,14,54,11.10
2017,05,24,14,55,10.80
2017,05,24,14,56,7.60
2017,05,24,14,57,8.70
2017,05,24,14,58,9.20
2017,05,24,14,59,9.20
2017,05,24,15,00,7.70
2017,05,24,15,01,5.80
2017,05,24,15,02,6.00
2017,05,24,15,03,9.70
2017,05,24,15,04,8.90
2017,05,24,15,05,10.90
2017,05,24,15,06,6.10
2017,05,24,15,07,12.60
2017,05,24,15,08,6.70
2017,05,24,15,09,7.60
2017,05,24,15,10,9.00
2017,05,24,15,11,10.80
2017,05,24,15,12,10.00
2017,05,24,15,13,13.00
2017,05,24,15,14,8.20
2017,05,24,15,15,10.80
2017,05,24,15,16,12.60
2017,05,24,15,17,11.10
2017,05,24,15,18,12.60
2017,05,24,15,19,12.50
2017,05,24,15,20,12.40
2017,05,24,15,21,12.00
2017,05,24,15,22,8.20
2017,05,24,15,23,10.60
2017,05,24,15,24,10.50
2017,05,24,15,25,9.30
2017,05,24,15,26,8.00
2017,05,24,15,27,5.70
2017,05,24,15,28,8.00
2017,05,24,15,29,6.80
2017,05,24,15,30,8.40
2017,05,24,15,31,6.80
2017,05,24,15,32,4.60
2017,05,24,15,33,4.50
2017,05,24,15,34,9.90
2017,05,24,15,35,9.20
2017,05,24,15,36,12.20
2017,05,24,15,37,10.60
2017,05,24,15,38,13.30
2017,05,24,15,39,11.30
2017,05,24,15,40,14.80
2017,05,24,15,41,15.50
2017,05,24,15,42,12.90
2017,05,24,15,43,7.30
2017,05,24,15,44,7.00
2017,05,24,15,45,13.60
2017,05,24,15,46,9.10
2017,05,24,15,47,8.70
2017,05,24,15,48,7.90
2017,05,24,15,49,7.60
2017,05,24,15,50,12.20
2017,05,24,15,51,9.80
2017,05,24,15,52,7.40
2017,05,24,15,53,7.70
2017,05,24,15,54,10.10
2017,05,24,15,55,8.80
2017,05,24,15,56,8.60
2017,05,24,15,57,6.80
2017,05,24,15,58,9.50
2017,05,24,15,59,6.60
2017,05,24,16,00,11.60
2017,05,24,16,01,10.10
2017,05,24,16,02,9.00
2017,05,24,16,03,10.20
2017,05,24,16,04,10.00
2017,05,24,16,05,10.80
2017,05,24,16,06,13.40
2017,05,24,16,07,11.90
2017,05,24,16,08,10.20
2017,05,24,16,09,6.40
2017,05,24,16,10,5.90
2017,05,24,16,11,7.70
2017,05,24,16,12,9.70
2017,05,24,16,13,14.60
2017,05,24,16,14,12.60
2017,05,24,16,15,10.40
2017,05,24,16,16,10.20
2017,05,24,16,17,9.40
2017,05,24,16,18,9.10
2017,05,24,16,19,11.40
2017,05,24,16,20,7.10
2017,05,24,16,21,12.40
2017,05,24,16,22,10.50
2017,05,24,16,23,6.50
2017,05,24,16,24,4.10
2017,05,24,16,25,6.10
2017,05,24,16,26,9.40
2017,05,24,16,27,7.30
2017,05,24,16,28,6.60
2017,05,24,16,29,6.10
2017,05,24,16,30,8.70
2017,05,24,16,31,4.20
2017,05,24,16,32,3.70
2017,05,24,16,33,5.70
2017,05,24,16,34,4.70
2017,05,24,16,35,6.40
2017,05,24,16,36,5.00
2017,05,24,16,37,2.60
2017,05,24,16,38,12.80
2017,05,24,16,39,6.60
2017,05,24,16,40,5.90
2017,05,24,16,41,4.80
2017,05,24,16,42,5.80
2017,05,24,16,43,6.20
2017,05,24,16,44,8.90
2017,05,24,16,45,8.20
2017,05,24,16,46,8.80
2017,05,24,16,47,3.20
2017,05,24,16,48,4.40
2017,05,24,16,49,3.70
2017,05,24,16,50,5.80
2017,05,24,16,51,5.40
2017,05,24,16,52,5.90
2017,05,24,16,53,7.20
2017,05,24,16,54,5.80
2017,05,24,16,55,6.10
2017,05,24,16,56,7.20
2017,05,24,16,57,5.00
2017,05,24,16,58,3.90
2017,05,24,16,59,3.20
2017,05,24,17,00,4.30
2017,05,24,17,01,7.10
2017,05,24,17,02,5.50
2017,05,24,17,03,3.30
2017,05,24,17,04,4.50
2017,05,24,17,05,4.30
2017,05,24,17,06,2.00
2017,05,24,17,07,4.20
2017,05,24,17,08,5.90
2017,05,24,17,09,3.80
2017,05,24,17,10,8.50
2017,05,24,17,11,8.20
2017,05,24,17,12,10.40
2017,05,24,17,13,9.70
2017,05,24,17,14,9.90
2017,05,24,17,15,6.10
2017,05,24,17,16,5.10
2017,05,24,17,17,5.80
2017,05,24,17,18,6.70
2017,05,24,17,19,3.30
2017,05,24,17,20,7.00
2017,05,24,17,21,2.80
2017,05,24,17,22,3.00
2017,05,24,17,23,5.30
2017,05,24,17,24,3.30
2017,05,24,17,25,3.80
2017,05,24,17,26,3.30
2017,05,24,17,27,2.80
2017,05,24,17,28,4.90
2017,05,24,17,29,8.10
2017,05,24,17,30,11.80
2017,05,24,17,31,6.60
2017,05,24,17,32,8.20
2017,05,24,17,33,2.50
2017,05,24,17,34,3.90
2017,05,24,17,35,8.50
2017,05,24,17,36,6.20
2017,05,24,17,37,6.60
2017,05,24,17,38,8.30
2017,05,24,17,39,9.10
2017,05,24,17,40,8.80
2017,05,24,17,41,3.80
2017,05,24,17,42,5.70
2017,05,24,17,43,8.20
2017,05,24,17,44,2.10
2017,05,24,17,45,2.30
2017,05,24,17,46,4.00
2017,05,24,17,47,3.50
2017,05,24,17,48,6.00
2017,05,24,17,49,5.60
2017,05,24,17,50,6.50
2017,05,24,17,51,5.30
2017,05,24,17,52,4.50
2017,05,24,17,53,3.60
2017,05,24,17,54,5.10
2017,05,24,17,55,4.20
2017,05,24,17,56,4.80
2017,05,24,17,57,5.90
2017,05,24,17,58,2.60
2017,05,24,17,59,1.90
2017,05,24,18,00,6.60
2017,05,24,18,01,5.30
2017,05,24,18,02,8.20
2017,05,24,18,03,9.60
2017,05,24,18,04,3.20
2017,05,24,18,05,7.50
2017,05,24,18,06,4.50
2017,05,24,18,07,5.10
2017,05,24,18,08,8.50
2017,05,24,18,09,6.10
2017,05,24,18,10,10.00
2017,05,24,18,11,5.60
2017,05,24,18,12,6.50
2017,05,24,18,13,3.00
2017,05,24,18,14,5.30
2017,05,24,18,15,12.60
2017,05,24,18,16,6.70
2017,05,24,18,17,5.90
2017,05,24,18,18,5.20
2017,05,24,18,19,4.90
2017,05,24,18,20,3.20
2017,05,24,18,21,5.50
2017,05,24,18,22,7.90
2017,05,24,18,23,5.10
2017,05,24,18,24,10.20
2017,05,24,18,25,6.40
2017,05,24,18,26,4.20
2017,05,24,18,27,5.90
2017,05,24,18,28,6.30
2017,05,24,18,29,5.90
2017,05,24,18,30,7.50
2017,05,24,18,31,6.80
2017,05,24,18,32,5.00
2017,05,24,18,33,4.40
2017,05,24,18,34,8.40
2017,05,24,18,35,11.00
2017,05,24,18,36,12.90
2017,05,24,18,37,9.60
2017,05,24,18,38,5.30
2017,05,24,18,39,9.20
2017,05,24,18,40,6.10
2017,05,24,18,41,3.00
2017,05,24,18,42,2.10
2017,05,24,18,43,6.50
2017,05,24,18,44,5.10
2017,05,24,18,45,4.20
2017,05,24,18,46,3.70
2017,05,24,18,47,3.60
2017,05,24,18,48,4.60
2017,05,24,18,49,8.40
2017,05,24,18,50,4.60
2017,05,24,18,51,4.60
2017,05,24,18,52,0.80
2017,05,24,18,53,1.50
2017,05,24,18,54,2.40
2017,05,24,18,55,5.20
2017,05,24,18,56,2.80
2017,05,24,18,57,2.90
2017,05,24,18,58,1.40
2017,05,24,18,59,4.50
2017,05,24,19,00,6.10
2017,05,24,19,01,5.40
2017,05,24,19,02,5.70
2017,05,24,19,03,3.40
2017,05,24,19,04,4.20
2017,05,24,19,05,5.80
2017,05,24,19,06,4.50
2017,05,24,19,07,3.40
2017,05,24,19,08,2.80
2017,05,24,19,09,3.00
2017,05,24,19,10,5.00
2017,05,24,19,11,4.30
2017,05,24,19,12,5.10
2017,05,24,19,13,3.30
2017,05,24,19,14,3.90
2017,05,24,19,15,3.50
2017,05,24,19,16,2.10
2017,05,24,19,17,2.80
2017,05,24,19,18,2.40
2017,05,24,19,19,1.80
2017,05,24,19,20,1.10
2017,05,24,19,21,0.10
2017,05,24,19,22,0.00
2017,05,24,19,23,0.00
2017,05,24,19,24,0.00
2017,05,24,19,25,0.00
2017,05,24,19,26,0.00
2017,05,24,19,27,0.00
2017,05,24,19,28,0.00
2017,05,24,19,29,0.00
2017,05,24,19,30,0.00
2017,05,24,19,31,0.00
2017,05,24,19,32,0.00
2017,05,24,19,33,0.00
2017,05,24,19,34,0.00
2017,05,24,19,35,0.00
2017,05,24,19,36,0.00
2017,05,24,19,37,0.00
2017,05,24,19,38,0.00
2017,05,24,19,39,0.00
2017,05,24,19,40,0.00
2017,05,24,19,41,0.00
2017,05,24,19,42,0.00
2017,05,24,19,43,0.00
2017,05,24,19,44,0.00
2017,05,24,19,45,0.00
2017,05,24,19,46,0.00
2017,05,24,19,47,0.00
2017,05,24,19,48,0.00
2017,05,24,19,49,0.00
2017,05,24,19,50,0.00
2017,05,24,19,51,0.00
2017,05,24,19,52,0.00
2017,05,24,19,53,0.00
2017,05,24,19,54,0.00
2017,05,24,19,55,0.00
2017,05,24,19,56,0.00
2017,05,24,19,57,0.00
2017,05,24,19,58,0.00
2017,05,24,19,59,0.00
2017,05,24,20,00,0.00
2017,05,24,20,01,0.00
2017,05,24,20,02,0.00
2017,05,24,20,03,0.00
2017,05,24,20,04,0.00
2017,05,24,20,05,0.00
2017,05,24,20,06,0.00
2017,05,24,20,07,0.00
2017,05,24,20,08,0.00
2017,05,24,20,09,0.00
2017,05,24,20,10,0.00
2017,05,24,20,11,0.00
2017,05,24,20,12,0.00
2017,05,24,20,13,0.00
2017,05,24,20,14,0.00
2017,05,24,20,15,0.00
2017,05,24,20,16,0.00
2017,05,24,20,17,0.00
2017,05,24,20,18,0.00
2017,05,24,20,19,0.00
2017,05,24,20,20,0.00
2017,05,24,20,21,0.00
2017,05,24,20,22,0.00
2017,05,24,20,23,0.00
2017,05,24,20,24,0.00
2017,05,24,20,25,0.00
2017,05,24,20,26,0.00
2017,05,24,20,27,0.00
2017,05,24,20,28,0.00
2017,05,24,20,29,0.00
2017,05,24,20,30,0.00
2017,05,24,20,31,0.00
2017,05,24,20,32,0.00
2017,05,24,20,33,0.00
2017,05,24,20,34,0.00
2017,05,24,20,35,0.00
2017,05,24,20,36,0.00
2017,05,24,20,37,2.00
2017,05,24,20,38,0.90
2017,05,24,20,39,3.00
2017,05,24,20,40,1.80
2017,05,24,20,41,1.10
2017,05,24,20,42,0.50
2017,05,24,20,43,1.20
2017,05,24,20,44,1.60
2017,05,24,20,45,1.20
2017,05,24,20,46,0.00
2017,05,24,20,47,0.00
2017,05,24,20,48,2.20
2017,05,24,20,49,1.20
2017,05,24,20,50,1.20
2017,05,24,20,51,0.10
2017,05,24,20,52,0.00
2017,05,24,20,53,0.00
2017,05,24,20,54,0.00
2017,05,24,20,55,0.00
2017,05,24,20,56,0.00
2017,05,24,20,57,0.00
2017,05,24,20,58,0.00
2017,05,24,20,59,0.00
2017,05,24,21,00,0.00
2017,05,24,21,01,0.00
2017,05,24,21,02,0.00
2017,05,24,21,03,0.00
2017,05,24,21,04,0.00
2017,05,24,21,05,0.00
2017,05,24,21,06,0.00
2017,05,24,21,07,0.00
2017,05,24,21,08,0.00
2017,05,24,21,09,0.00
2017,05,24,21,10,0.00
2017,05,24,21,11,0.00
2017,05,24,21,12,0.00
2017,05,24,21,13,0.00
2017,05,24,21,14,0.00
2017,05,24,21,15,0.00
2017,05,24,21,16,0.00
2017,05,24,21,17,0.00
2017,05,24,21,18,0.00
2017,05,24,21,19,0.00
2017,05,24,21,20,0.00
2017,05,24,21,21,0.00
2017,05,24,21,22,0.00
2017,05,24,21,23,0.00
2017,05,24,21,24,0.00
2017,05,24,21,25,0.00
2017,05,24,21,26,0.00
2017,05,24,21,27,0.00
2017,05,24,21,28,0.00
2017,05,24,21,29,0.00
2017,05,24,21,30,0.00
2017,05,24,21,31,0.00
2017,05,24,21,32,0.00
2017,05,24,21,33,0.00
2017,05,24,21,34,0.00
2017,05,24,21,35,0.00
2017,05,24,21,36,0.00
2017,05,24,21,37,0.00
2017,05,24,21,38,0.00
2017,05,24,21,39,0.00
2017,05,24,21,40,0.00
2017,05,24,21,41,0.00
2017,05,24,21,42,0.00
2017,05,24,21,43,0.00
2017,05,24,21,44,0.00
2017,05,24,21,45,0.00
2017,05,24,21,46,0.00
2017,05,24,21,47,0.00
2017,05,24,21,48,0.00
2017,05,24,21,49,0.00
2017,05,24,21,50,0.00
2017,05,24,21,51,0.00
2017,05,24,21,52,0.00
2017,05,24,21,53,0.00
2017,05,24,21,54,0.00
2017,05,24,21,55,0.00
2017,05,24,21,56,0.00
2017,05,24,21,57,0.00
2017,05,24,21,58,0.00
2017,05,24,21,59,0.00
2017,05,24,22,00,0.00
2017,05,24,22,01,0.00
2017,05,24,22,02,0.00
2017,05,24,22,03,0.00
2017,05,24,22,04,0.00
2017,05,24,22,05,0.00
2017,05,24,22,06,0.00
2017,05,24,22,07,0.00
2017,05,24,22,08,0.00
2017,05,24,22,09,0.00
2017,05,24,22,10,0.00
2017,05,24,22,11,0.00
2017,05,24,22,12,0.00
2017,05,24,22,13,0.00
2017,05,24,22,14,0.00
2017,05,24,22,15,0.00
2017,05,24,22,16,0.00
2017,05,24,22,17,0.00
2017,05,24,22,18,0.00
2017,05,24,22,19,0.00
2017,05,24,22,20,0.00
2017,05,24,22,21,0.00
2017,05,24,22,22,0.00